[TLELIST] Archives

 

[list_settings.list_name] Current TLEs

August 26th 2009 PST

HST 1 20580U 90037B 09235.74316206 +.00000270 +00000-0 +79123-5 0 04375 2 20580 028.4705 021.3866 0003271 277.6196 082.4155 15.00823779860012 ISS (ZARYA) 1 25544U 98067A 09236.82313818 .00007882 00000-0 58983-4 0 4788 2 25544 051.6410 314.5038 0009123 014.1640 087.7701 15.73759976616769 CXO 1 25867U 99040B 09237.87500000 -.00000315 +00000-0 +10000-3 0 03630 2 25867 065.7470 066.5543 7652222 275.5663 356.4182 00.37806363005277 ____________________________________________________________________ These 2-Line ...Continue Reading

[list_settings.list_name] Current TLEs

August 25th 2009 PST

HST 1 20580U 90037B 09235.74316206 +.00000270 +00000-0 +79123-5 0 04375 2 20580 028.4705 021.3866 0003271 277.6196 082.4155 15.00823779860012 ISS (ZARYA) 1 25544U 98067A 09236.82313818 .00007882 00000-0 58983-4 0 4788 2 25544 051.6410 314.5038 0009123 014.1640 087.7701 15.73759976616769 CXO 1 25867U 99040B 09235.25000000 -.00000198 +00000-0 +10000-3 0 03623 2 25867 065.7320 066.6126 7644989 275.6033 359.0236 00.37805082005267 ____________________________________________________________________ These 2-Line ...Continue Reading

[list_settings.list_name] Current TLEs

August 24th 2009 PST

HST 1 20580U 90037B 09232.08569988 +.00000240 +00000-0 +56070-5 0 04368 2 20580 028.4707 045.2589 0003405 238.7722 121.2533 15.00822701859466 ISS (ZARYA) 1 25544U 98067A 09235.50643519 .00008324 00000-0 62098-4 0 4678 2 25544 051.6402 321.2602 0008993 009.0044 188.1318 15.73739112616554 CXO 1 25867U 99040B 09235.25000000 -.00000198 +00000-0 +10000-3 0 03623 2 25867 065.7320 066.6126 7644989 275.6033 359.0236 00.37805082005267 ____________________________________________________________________ These 2-Line ...Continue Reading

[list_settings.list_name] Current TLEs

August 23rd 2009 PST

HST 1 20580U 90037B 09232.08569988 +.00000240 +00000-0 +56070-5 0 04368 2 20580 028.4707 045.2589 0003405 238.7722 121.2533 15.00822701859466 ISS (ZARYA) 1 25544U 98067A 09235.17052038 .00008320 00000-0 62084-4 0 4649 2 25544 051.6408 322.9840 0008924 007.9272 084.8206 15.73733402616505 CXO 1 25867U 99040B 09235.25000000 -.00000198 +00000-0 +10000-3 0 03623 2 25867 065.7320 066.6126 7644989 275.6033 359.0236 00.37805082005267 ____________________________________________________________________ These 2-Line ...Continue Reading

[list_settings.list_name] Current TLEs

August 21st 2009 PST

HST 1 20580U 90037B 09230.15722119 +.00000240 +00000-0 +56070-5 0 04350 2 20580 028.4707 057.8415 0003405 218.2776 141.7609 15.00822419859170 ISS (ZARYA) 1 25544U 98067A 09232.76531237 .00006251 00000-0 47861-4 0 4506 2 25544 051.6413 335.3302 0008604 358.8497 138.3300 15.73685025616129 CXO 1 25867U 99040B 09232.69082260 .00000000 00000-0 10000-3 0 3616 2 25867 065.7166 066.7224 7643950 275.6543 010.5115 00.37816142 5262 ____________________________________________________________________ These 2-Line ...Continue Reading

[list_settings.list_name] Current TLEs

August 20th 2009 PST

HST 1 20580U 90037B 09230.15722119 +.00000240 +00000-0 +56070-5 0 04350 2 20580 028.4707 057.8415 0003405 218.2776 141.7609 15.00822419859170 ISS (ZARYA) 1 25544U 98067A 09230.79669876 +.00005475 +00000-0 +42529-4 0 04376 2 25544 051.6412 345.4354 0008229 350.9116 146.1260 15.73655933615813 CXO 1 25867U 99040B 09229.95833333 -.00000168 +00000-0 +10000-3 0 03588 2 25867 065.7108 066.8750 7633145 275.6218 358.5188 00.37800409005249 ____________________________________________________________________ These 2-Line ...Continue Reading

[list_settings.list_name] Current TLEs

August 19th 2009 PST

HST 1 20580U 90037B 09227.76324566 +.00000260 +00000-0 +71341-5 0 04346 2 20580 028.4705 073.4682 0003546 193.8023 166.2385 15.00822061858813 ISS (ZARYA) 1 25544U 98067A 09231.16546424 .00005509 00000-0 42759-4 0 4396 2 25544 051.6413 343.5417 0008326 352.4600 075.1058 15.73660688615871 CXO 1 25867U 99040B 09229.95833333 -.00000168 +00000-0 +10000-3 0 03588 2 25867 065.7108 066.8750 7633145 275.6218 358.5188 00.37800409005249 ____________________________________________________________________ These 2-Line ...Continue Reading

[list_settings.list_name] Current TLEs

August 18th 2009 PST

HST 1 20580U 90037B 09227.76324566 +.00000260 +00000-0 +71341-5 0 04346 2 20580 028.4705 073.4682 0003546 193.8023 166.2385 15.00822061858813 ISS (ZARYA) 1 25544U 98067A 09230.13750000 .00005461 00000-0 42447-4 0 4323 2 25544 051.6413 348.8179 0008302 348.3626 011.6991 15.73647838615716 CXO 1 25867U 99040B 09229.95833333 -.00000168 +00000-0 +10000-3 0 03588 2 25867 065.7108 066.8750 7633145 275.6218 358.5188 00.37800409005249 ____________________________________________________________________ These 2-Line ...Continue Reading

[list_settings.list_name] Current TLEs

August 17th 2009 PST

HST 1 20580U 90037B 09227.76324566 +.00000260 +00000-0 +71341-5 0 04346 2 20580 028.4705 073.4682 0003546 193.8023 166.2385 15.00822061858813 ISS (ZARYA) 1 25544U 98067A 09227.93173770 +.00005269 +00000-0 +41159-4 0 04213 2 25544 051.6406 000.1381 0008119 339.3357 116.4747 15.73620242615362 CXO 1 25867U 99040B 09227.33333333 -.00000157 +00000-0 +10000-3 0 03570 2 25867 065.7068 066.9588 7626531 275.6786 001.0612 00.37796323005235 ____________________________________________________________________ These 2-Line ...Continue Reading

[list_settings.list_name] Current TLEs

August 16th 2009 PST

HST 1 20580U 90037B 09224.03928858 +.00000349 +00000-0 +13915-4 0 04336 2 20580 028.4693 097.7770 0003579 156.1857 203.8952 15.00821899858253 ISS (ZARYA) 1 25544U 98067A 09226.85938454 +.00004949 +00000-0 +38952-4 0 04144 2 25544 051.6412 005.6411 0008023 335.7592 161.0630 15.73606517615195 CXO 1 25867U 99040B 09227.33333333 -.00000157 +00000-0 +10000-3 0 03570 2 25867 065.7068 066.9588 7626531 275.6786 001.0612 00.37796323005235 ____________________________________________________________________ These 2-Line ...Continue Reading
  • This mailing list is a public mailing list - anyone may join or leave, at any time.
  • This mailing list is announce-only.

International Space Station (ISS) / Hubble Space Telescope (HST) / Chandra X-Ray Observatory Orbital Data via EMAIL

Privacy Policy:

Private list